Starlink 36268

operational
NORAD ID: 67199 Int'l Des: 2025-304 Owner: SPXS Country: US Constellation: starlink
LEOCIRCULAR

Starlink 36268について

説明を読み込み中...

リアルタイム位置

3D地球を読み込み中...

次回通過

高度履歴

Altitude vs Time

uPlot chart will show altitude changes over time

軌道要素

1 67199C 25304H 25352.76784722 .00717100 00000+0 98640-3 0 3524
2 67199 69.9983 31.2710 0009110 255.3080 236.5990 16.05078858 19
Epoch: Dec 18, 2025 • Age: 52 hours

現在のステータス

高度 274.5 km
速度 7.74 km/s
衛星直下点 -69.99°S, 155.98°E
打ち上げ日 Dec 17, 2025
運用期間 2 days
タイプ internet

技術仕様

分類 Payload
質量 575.00 kg
乾燥質量 530.00 kg
総質量 575.00 kg
長さ 0.30 m
直径 4.10 m
スパン 29.00 m
形状 Box + pan
製造者 SPXS
バスタイプ Starlink V2MO
フェーズステータス In Orbit
所有者/国 SPXS/US

大規模コンステレーション

Loading constellations...